[[{"header":{"parameterUnit":"m.s-1","parameterCategory":2,"la1":30.2991,"la2":30.254,"lo1":-89.0895,"lo2":-89.0444,"dy":0.0017,"dx":0.0017,"nx":28,"ny":28,"refTime":"2026-01-30T09:00:00:Z","depth":"0","parameterNumber":2,"parameterNumberName":"U-component_of_CURRENTS"},"data":[0,0,0,0,0,0,0,0,0,0,0,0,0,0,0,0,0,0,0,0,0,0,0,0,0,0,0,0,0,0,0,0,0,0,0,0,0,0,0,0,0,0,0,0,0,0,0,0,0,0,0,0,0,0,0,0,0,0,0.1821,0.1822,0,0.1867,0.1868,0.1868,0.1872,0.1872,0.1872,0.1871,0.1865,0.1865,0.1865,0,0,0,0,0,0,0,0,0,0,0,0,0,0.172,0.1722,0.1821,0.1822,0.1823,0.1867,0.1868,0.1868,0.1872,0.1872,0.1872,0.1871,0.1865,0.1865,0.1865,0,0,0,0,0,0,0,0,0,0,0,0,0,0.1762,0.1722,0.1821,0.1832,0.1834,0.1867,0.1868,0.1868,0.1872,0.1872,0.1872,0.1871,0.1865,0.1865,0.1865,0.1874,0,0,0.1866,0.1866,0,0,0,0,0,0,0,0,0.176,0.1766,0.1829,0.1831,0.1833,0.1866,0.183,0.1868,0.1872,0.1855,0.1871,0.1871,0.1862,0.1863,0.1869,0.1873,0.1873,0.1866,0.1866,0.1866,0.1866,0,0,0,0,0,0,0,0.1757,0.1764,0.1837,0.183,0.1833,0.1829,0.1835,0.1837,0.1857,0.1857,0.1858,0.1867,0.1862,0.1869,0.1869,0.1873,0.1866,0.1866,0.1866,0.1866,0.1905,0.1906,0,0,0,0,0,0,0.1758,0.1761,0.1835,0.1838,0.1798,0.1831,0.1837,0.1854,0.1859,0.186,0.1867,0.1867,0.1869,0.1869,0.1869,0.1901,0.1866,0.1866,0.1866,0.1904,0.1905,0.1906,0,0,0,0,0,0,0.1756,0.1764,0.1834,0.1802,0.1811,0.1834,0.1852,0.1855,0.1865,0.1868,0.1867,0.1874,0.1869,0.1869,0.1881,0.19,0.1866,0.1866,0.1903,0.1904,0.1906,0.1951,0,0,0,0,0,0,0.1753,0.1764,0.1772,0.1803,0.1813,0.1859,0.1853,0.1856,0.1872,0.1872,0.1874,0.1873,0.1869,0.1881,0.1882,0.1899,0.1866,0.1902,0.1904,0.1905,0.1949,0.1954,0.1959,0,0,0,0,0,0.1749,0.1763,0.1772,0.1781,0.1825,0.186,0.1865,0.1878,0.1873,0.1883,0.1886,0.1873,0.1893,0.1882,0.1882,0.1901,0.1901,0.1903,0.1905,0.1946,0.1953,0.1959,0,0,0,0,0,0,0.172,0.1767,0.1776,0.1803,0.1832,0.1862,0.1873,0.1881,0.1892,0.189,0.1885,0.1885,0.1903,0.1896,0.1885,0.1918,0.1895,0.1897,0.1926,0.1932,0.1938,0.1942,0.1866,0,0,0,0,0,0.172,0.1744,0.1785,0.1806,0.1822,0.1847,0.1861,0.1874,0.1891,0.1896,0.1898,0.1902,0.1913,0.1918,0.1923,0.194,0.1947,0.1952,0.1957,0.1962,0.1966,0.1992,0.2,0.1914,0.1914,0.1914,0,0,0.1712,0.1743,0.1754,0.1801,0.1823,0.1855,0.1854,0.1883,0.1908,0.1893,0.1917,0.1918,0.1922,0.1944,0.1952,0.194,0.1994,0.1965,0.1968,0.197,0.1995,0.2003,0.2011,0.1915,0.1915,0.1915,0,0,0.1716,0.174,0.1764,0.1795,0.1838,0.1859,0.1869,0.1904,0.1917,0.1943,0.1942,0.1956,0.1967,0.198,0.1986,0.2022,0.2019,0.2023,0.2054,0.2079,0.2087,0.2093,0.213,0.2139,0.2026,0.2027,0.2027,0,0.1703,0.1746,0.1774,0.181,0.1837,0.1862,0.1895,0.1918,0.195,0.1968,0.1954,0.1989,0.1986,0.2026,0.2038,0.2034,0.2052,0.203,0.2087,0.2093,0.2099,0.2135,0.2144,0.2029,0.2029,0.2028,0.2028,0,0.1731,0.1766,0.1783,0.1839,0.1869,0.1902,0.1944,0.197,0.1983,0.2005,0.2042,0.2044,0.2066,0.2069,0.2063,0.2109,0.211,0.209,0.2071,0.211,0.2146,0.2155,0.2033,0.2032,0.2031,0.203,0,0,0.1703,0.1786,0.1793,0.1825,0.1889,0.1917,0.1965,0.2018,0.2053,0.2073,0.2115,0.2132,0.2134,0.2142,0.2141,0.2159,0.2215,0.2144,0.2144,0.2181,0.2287,0.2346,0.2362,0.2206,0.2207,0.2209,0.2302,0,0.1717,0.178,0.1823,0.1882,0.1917,0.1965,0.2008,0.2056,0.2092,0.2137,0.2154,0.2187,0.2164,0.2178,0.2196,0.2211,0.2239,0.2193,0.2243,0.2244,0.2292,0.2374,0.2403,0.2494,0.2311,0.2312,0.2313,0,0.1734,0.1776,0.1831,0.1912,0.1932,0.1967,0.2044,0.209,0.2162,0.2189,0.223,0.2247,0.2292,0.2254,0.2311,0.2285,0.2293,0.2297,0.23,0.2344,0.2321,0.2421,0.2517,0.2535,0.2327,0.2326,0.2325,0,0.1698,0.1784,0.1825,0.1853,0.1942,0.1973,0.2022,0.2098,0.2146,0.2226,0.2267,0.2317,0.235,0.2367,0.2391,0.2354,0.2452,0.24,0.2464,0.2468,0.2498,0.2503,0.2616,0.244,0.244,0.244,0.2439,0,0.1698,0.1732,0.181,0.1832,0.1883,0.1955,0.2014,0.2075,0.2163,0.2231,0.2288,0.2353,0.2378,0.2439,0.2434,0.2507,0.2495,0.2498,0.2506,0.2517,0.2522,0.254,0.2525,0.2443,0.2442,0.2442,0.2441,0,0.165,0.1705,0.1753,0.1838,0.1865,0.1898,0.2,0.2049,0.2144,0.2238,0.227,0.2392,0.2492,0.2531,0.2581,0.2582,0.2602,0.2643,0.2668,0.2678,0.2742,0.2728,0.2685,0.2595,0.2733,0.2735,0.2737,0,0.1633,0.1651,0.1731,0.1754,0.179,0.1852,0.1898,0.2013,0.2079,0.2266,0.2313,0.2457,0.2566,0.2698,0.2746,0.2803,0.2694,0.2839,0.2769,0.2789,0.2777,0.2608,0.2519,0.2828,0.283,0.2832,0.2834,0,0.1588,0.1611,0.1645,0.1693,0.1737,0.1798,0.1883,0.1938,0.2095,0.2206,0.2375,0.2487,0.2677,0.2792,0.2897,0.2917,0.2785,0.2882,0.2893,0.2874,0.2705,0.2608,0.2725,0.2852,0.285,0.2849,0.2848,0.2847,0.1539,0.1544,0.1586,0.1628,0.1677,0.1742,0.1796,0.1911,0.2036,0.2234,0.2368,0.2568,0.281,0.2989,0.2984,0.3082,0.2915,0.3049,0.3035,0.2863,0.2764,0.2938,0.3075,0.3074,0.3074,0.3073,0.3073,0,0.1477,0.1492,0.1525,0.1578,0.1615,0.1669,0.1785,0.1861,0.2005,0.222,0.2391,0.2736,0.2934,0.3089,0.33,0.3269,0.3046,0.3208,0.299,0.289,0.3082,0.3079,0.3236,0.3236,0.3236,0.3236,0.3236,0.3236,0.1443,0.1445,0.1468,0.1504,0.1548,0.1628,0.1694,0.1821,0.1988,0.2238,0.2468,0.2666,0.3119,0.3539,0.3627,0.3507,0.3198,0.3119,0.299,0.3201,0.3183,0.3166,0.3162,0.3334,0.3334,0.2701,0.2697,0.2694]},{"header":{"parameterUnit":"m.s-1","parameterCategory":2,"la1":30.2991,"la2":30.254,"lo1":-89.0895,"lo2":-89.0444,"dy":0.0017,"dx":0.0017,"nx":28,"ny":28,"refTime":"2026-01-30T09:00:00:Z","depth":"0","parameterNumber":3,"parameterNumberName":"V-component_of_CURRENTS"},"data":[0,0,0,0,0,0,0,0,0,0,0,0,0,0,0,0,0,0,0,0,0,0,0,0,0,0,0,0,0,0,0,0,0,0,0,0,0,0,0,0,0,0,0,0,0,0,0,0,0,0,0,0,0,0,0,0,0,0,-0.0399,-0.0399,0,-0.0444,-0.0445,-0.0445,-0.0483,-0.0484,-0.0484,-0.0484,-0.0532,-0.0533,-0.0534,0,0,0,0,0,0,0,0,0,0,0,0,0,-0.0393,-0.0392,-0.0399,-0.0399,-0.04,-0.0444,-0.0445,-0.0445,-0.0483,-0.0484,-0.0484,-0.0485,-0.0532,-0.0533,-0.0534,0,0,0,0,0,0,0,0,0,0,0,0,0,-0.0413,-0.0392,-0.0398,-0.0424,-0.0426,-0.0444,-0.0445,-0.0446,-0.0483,-0.0484,-0.0484,-0.0485,-0.0532,-0.0533,-0.0534,-0.0532,0,0,-0.0539,-0.0539,0,0,0,0,0,0,0,0,-0.0411,-0.0413,-0.0419,-0.0422,-0.0425,-0.0458,-0.046,-0.0474,-0.0483,-0.0462,-0.0484,-0.0485,-0.0507,-0.051,-0.0519,-0.0534,-0.0536,-0.0539,-0.054,-0.054,-0.0541,0,0,0,0,0,0,0,-0.041,-0.0411,-0.0417,-0.042,-0.0423,-0.0449,-0.0452,-0.0463,-0.0481,-0.0464,-0.0467,-0.0471,-0.0509,-0.0517,-0.052,-0.0537,-0.0539,-0.054,-0.0541,-0.0541,-0.056,-0.056,0,0,0,0,0,0,-0.04,-0.041,-0.0416,-0.0418,-0.0419,-0.0448,-0.0452,-0.0447,-0.0481,-0.0487,-0.047,-0.0472,-0.0514,-0.0518,-0.0522,-0.0515,-0.054,-0.0542,-0.0542,-0.056,-0.056,-0.056,0,0,0,0,0,0,-0.04,-0.04,-0.0414,-0.0415,-0.0419,-0.0447,-0.0442,-0.0448,-0.0455,-0.0486,-0.0492,-0.0472,-0.0515,-0.052,-0.0529,-0.0518,-0.0542,-0.0544,-0.0561,-0.056,-0.056,-0.0506,0,0,0,0,0,0,-0.0399,-0.0399,-0.0391,-0.0414,-0.0418,-0.0415,-0.0442,-0.0448,-0.0457,-0.046,-0.0489,-0.0494,-0.0516,-0.0527,-0.053,-0.052,-0.0545,-0.0561,-0.0561,-0.056,-0.0508,-0.0504,-0.05,0,0,0,0,0,-0.0398,-0.0378,-0.0391,-0.0391,-0.0407,-0.0414,-0.0418,-0.0442,-0.0456,-0.0452,-0.0475,-0.0493,-0.0525,-0.0527,-0.0532,-0.0522,-0.0562,-0.0561,-0.056,-0.051,-0.0505,-0.05,0,0,0,0,0,0,-0.0368,-0.0381,-0.0395,-0.0379,-0.0394,-0.042,-0.0417,-0.0436,-0.0451,-0.0454,-0.0487,-0.0493,-0.0499,-0.0517,-0.0518,-0.0526,-0.0547,-0.0547,-0.0507,-0.0503,-0.0498,-0.0482,-0.0546,0,0,0,0,0,-0.0358,-0.0348,-0.0369,-0.0357,-0.0361,-0.039,-0.0396,-0.0412,-0.043,-0.0438,-0.046,-0.0483,-0.0499,-0.0505,-0.0523,-0.0523,-0.0548,-0.0521,-0.0516,-0.0513,-0.0503,-0.0538,-0.0536,-0.0557,-0.0557,-0.0557,0,0,-0.0342,-0.0349,-0.0343,-0.035,-0.0364,-0.0357,-0.0394,-0.0396,-0.0392,-0.0439,-0.0438,-0.0468,-0.0496,-0.05,-0.0504,-0.0513,-0.052,-0.0512,-0.0508,-0.05,-0.0537,-0.0535,-0.0534,-0.0557,-0.0557,-0.0557,0,0,-0.0301,-0.0312,-0.0289,-0.0298,-0.0312,-0.0329,-0.0327,-0.0351,-0.0364,-0.037,-0.0404,-0.0425,-0.0447,-0.0467,-0.048,-0.0461,-0.0498,-0.0469,-0.0431,-0.0466,-0.0465,-0.0464,-0.0492,-0.0494,-0.0465,-0.0465,-0.0465,0,-0.0283,-0.0258,-0.0284,-0.0268,-0.0266,-0.0312,-0.0288,-0.0307,-0.0332,-0.0338,-0.036,-0.0403,-0.043,-0.0438,-0.0435,-0.0451,-0.0476,-0.0447,-0.046,-0.046,-0.046,-0.0489,-0.0492,-0.0462,-0.0462,-0.0463,-0.0463,0,-0.0227,-0.0211,-0.0197,-0.0191,-0.0194,-0.0181,-0.021,-0.0217,-0.0244,-0.0268,-0.0288,-0.0334,-0.036,-0.0375,-0.0399,-0.0409,-0.0429,-0.0452,-0.0471,-0.0454,-0.0487,-0.0491,-0.0458,-0.0459,-0.046,-0.0461,0,0,-0.0175,-0.0159,-0.0155,-0.0136,-0.0151,-0.0142,-0.014,-0.0148,-0.0142,-0.0189,-0.0188,-0.0235,-0.0275,-0.0292,-0.0333,-0.0365,-0.0391,-0.0403,-0.0406,-0.0427,-0.0465,-0.0491,-0.0498,-0.042,-0.0421,-0.0421,-0.0488,0,-0.0123,-0.0066,-0.0079,-0.0031,-0.0003,-0.0042,-0.0031,-0.005,-0.0082,-0.0096,-0.0163,-0.018,-0.0239,-0.0252,-0.0295,-0.0366,-0.0399,-0.0371,-0.0482,-0.0485,-0.0507,-0.0503,-0.0535,-0.0598,-0.0492,-0.0493,-0.0493,0,-0.0064,-0.0031,0.003,0.006,0.0067,0.0082,0.0088,0.0088,0.0044,0.0019,-0.003,-0.0086,-0.0142,-0.0195,-0.0312,-0.0292,-0.0369,-0.043,-0.0434,-0.0478,-0.0518,-0.0599,-0.061,-0.0844,-0.05,-0.0499,-0.0499,0,-0.0003,0.0044,0.01,0.0109,0.0132,0.0147,0.0148,0.0123,0.013,0.0084,0.0085,-0.0007,-0.0044,-0.0156,-0.0292,-0.0302,-0.0421,-0.0454,-0.0548,-0.0551,-0.0609,-0.0616,-0.0855,-0.053,-0.0529,-0.0529,-0.0529,0,0.0061,0.0103,0.0134,0.0163,0.023,0.0211,0.0259,0.024,0.0222,0.0246,0.0146,0.0143,-0.0037,-0.0131,-0.0263,-0.0417,-0.0404,-0.0538,-0.057,-0.0591,-0.0595,-0.0825,-0.0957,-0.0532,-0.0531,-0.0531,-0.053,0,0.0117,0.0135,0.0203,0.0243,0.026,0.0302,0.0335,0.0366,0.0335,0.0362,0.0353,0.0249,0.0124,-0.0055,-0.0239,-0.037,-0.0661,-0.0572,-0.0582,-0.0614,-0.0921,-0.1047,-0.1313,-0.1413,-0.069,-0.0691,-0.0692,0,0.0152,0.0195,0.0266,0.0313,0.0332,0.039,0.0435,0.0423,0.0458,0.0437,0.0463,0.0344,0.0282,-0.0008,-0.027,-0.051,-0.0712,-0.0692,-0.072,-0.0946,-0.111,-0.1204,-0.1276,-0.0779,-0.078,-0.0781,-0.0782,0,0.0219,0.024,0.0297,0.0399,0.046,0.0539,0.0595,0.0644,0.0641,0.0655,0.0654,0.0596,0.0303,0.003,-0.0313,-0.0496,-0.0893,-0.0724,-0.0967,-0.1206,-0.1318,-0.1425,-0.0726,-0.0793,-0.0792,-0.0792,-0.0791,-0.079,0.0264,0.0321,0.0398,0.0498,0.0576,0.0685,0.0771,0.0821,0.0887,0.0923,0.0826,0.0766,0.032,-0.0163,-0.0445,-0.1003,-0.0991,-0.1168,-0.1302,-0.1375,-0.1487,-0.0803,-0.09,-0.09,-0.09,-0.0899,-0.0899,0,0.0331,0.0398,0.0494,0.0628,0.0748,0.0762,0.0885,0.097,0.1071,0.1056,0.1036,0.0723,0.0203,-0.033,-0.1066,-0.1484,-0.1642,-0.1741,-0.1908,-0.1948,-0.1353,-0.1371,-0.1565,-0.1564,-0.1564,-0.1564,-0.1564,-0.1563,0.0371,0.048,0.0539,0.0761,0.086,0.1029,0.1113,0.1194,0.122,0.1213,0.1105,0.0955,0.0432,-0.0906,-0.1864,-0.2082,-0.2408,-0.2497,-0.2632,-0.2263,-0.222,-0.2179,-0.2229,-0.2599,-0.26,-0.3172,-0.3178,-0.3183]}],[{"header":{"parameterUnit":"m.s-1","parameterCategory":2,"la1":30.2991,"la2":30.254,"lo1":-89.0895,"lo2":-89.0444,"dy":0.0017,"dx":0.0017,"nx":28,"ny":28,"refTime":"2026-01-30T09:00:00:Z","depth":"2","parameterNumber":2,"parameterNumberName":"U-component_of_CURRENTS"},"data":[0,0,0,0,0,0,0,0,0,0,0,0,0,0,0,0,0,0,0,0,0,0,0,0,0,0,0,0,0,0,0,0,0,0,0,0,0,0,0,0,0,0,0,0,0,0,0,0,0,0,0,0,0,0,0,0,0,0,0.1793,0.1794,0,0.1839,0.1839,0.1839,0.1845,0.1844,0.1844,0.1844,0.1839,0.1839,0.1839,0,0,0,0,0,0,0,0,0,0,0,0,0,0.1694,0.1696,0.1793,0.1794,0.1795,0.1839,0.1839,0.184,0.1845,0.1844,0.1844,0.1844,0.1839,0.1839,0.1839,0,0,0,0,0,0,0,0,0,0,0,0,0,0.1736,0.1696,0.1793,0.1805,0.1806,0.1839,0.1839,0.184,0.1845,0.1844,0.1844,0.1844,0.1839,0.1839,0.1839,0.1847,0,0,0.1839,0.184,0,0,0,0,0,0,0,0,0.1734,0.1739,0.1802,0.1804,0.1806,0.1838,0.1803,0.184,0.1845,0.1828,0.1844,0.1844,0.1836,0.1836,0.1843,0.1847,0.1846,0.1839,0.184,0.184,0.184,0,0,0,0,0,0,0,0.1731,0.1737,0.1809,0.1803,0.1805,0.1802,0.1807,0.181,0.183,0.1829,0.183,0.1839,0.1836,0.1843,0.1842,0.1846,0.1839,0.184,0.184,0.184,0.1879,0.188,0,0,0,0,0,0,0.1732,0.1735,0.1807,0.181,0.1771,0.1804,0.181,0.1826,0.1831,0.1833,0.1839,0.1839,0.1843,0.1842,0.1842,0.1875,0.184,0.184,0.184,0.1878,0.1879,0.188,0,0,0,0,0,0,0.1729,0.1738,0.1806,0.1775,0.1784,0.1807,0.1824,0.1827,0.1838,0.184,0.184,0.1848,0.1842,0.1842,0.1855,0.1874,0.184,0.184,0.1877,0.1879,0.188,0.1926,0,0,0,0,0,0,0.1726,0.1737,0.1745,0.1775,0.1786,0.1831,0.1825,0.1828,0.1845,0.1845,0.1847,0.1846,0.1842,0.1855,0.1855,0.1873,0.184,0.1876,0.1878,0.188,0.1923,0.1928,0.1933,0,0,0,0,0,0.1723,0.1737,0.1746,0.1754,0.1798,0.1832,0.1837,0.1849,0.1845,0.1856,0.1859,0.1846,0.1867,0.1856,0.1856,0.1875,0.1875,0.1877,0.1879,0.1921,0.1927,0.1933,0,0,0,0,0,0,0.1695,0.174,0.175,0.1776,0.1805,0.1834,0.1845,0.1853,0.1865,0.1864,0.1859,0.1859,0.1877,0.187,0.1859,0.1892,0.1869,0.1871,0.19,0.1906,0.1912,0.1916,0.184,0,0,0,0,0,0.1695,0.1719,0.1759,0.1779,0.1795,0.182,0.1834,0.1847,0.1864,0.1869,0.1871,0.1875,0.1887,0.1891,0.1896,0.1914,0.1921,0.1926,0.1931,0.1936,0.194,0.1965,0.1973,0.1888,0.1888,0.1888,0,0,0.1687,0.1717,0.1729,0.1775,0.1797,0.1828,0.1827,0.1856,0.188,0.1866,0.189,0.1892,0.1895,0.1918,0.1925,0.1914,0.1968,0.1939,0.1942,0.1944,0.1969,0.1977,0.1984,0.1889,0.1889,0.1889,0,0,0.1691,0.1716,0.1739,0.1769,0.1812,0.1832,0.1842,0.1877,0.189,0.1917,0.1915,0.193,0.1941,0.1954,0.196,0.1996,0.1993,0.1997,0.2028,0.2053,0.206,0.2067,0.2103,0.2112,0.2,0.2001,0.2001,0,0.1678,0.1721,0.1749,0.1784,0.1811,0.1836,0.1868,0.1891,0.1923,0.1941,0.1928,0.1963,0.196,0.1999,0.2012,0.2008,0.2025,0.2004,0.206,0.2067,0.2072,0.2107,0.2117,0.2003,0.2003,0.2002,0.2002,0,0.1707,0.1741,0.1758,0.1813,0.1843,0.1876,0.1917,0.1943,0.1957,0.1979,0.2015,0.2018,0.204,0.2042,0.2037,0.2082,0.2084,0.2063,0.2044,0.2084,0.2118,0.2127,0.2007,0.2006,0.2005,0.2004,0,0,0.168,0.1761,0.1768,0.18,0.1863,0.1891,0.1938,0.1991,0.2025,0.2046,0.2088,0.2105,0.2108,0.2115,0.2114,0.2132,0.2188,0.2118,0.2118,0.2154,0.2259,0.2314,0.2329,0.2179,0.2181,0.2182,0.2273,0,0.1694,0.1756,0.1798,0.1856,0.1892,0.1938,0.1981,0.2029,0.2065,0.211,0.2126,0.216,0.2137,0.2152,0.2169,0.2184,0.2212,0.2166,0.2215,0.2216,0.2261,0.2341,0.2126,0.2194,0.2282,0.2283,0.2284,0,0.171,0.1752,0.1806,0.1886,0.1907,0.1941,0.2018,0.2063,0.2134,0.2162,0.2202,0.2219,0.2264,0.2226,0.2283,0.2257,0.2265,0.2269,0.2272,0.2312,0.2289,0.2165,0.2207,0.2299,0.2298,0.2297,0.2296,0,0.1676,0.1761,0.1801,0.1829,0.1916,0.1948,0.1996,0.2071,0.2119,0.2198,0.2239,0.2288,0.2322,0.2338,0.2361,0.2326,0.2422,0.2371,0.2431,0.2434,0.2256,0.2242,0.241,0.241,0.241,0.2409,0.2409,0,0.1675,0.1709,0.1787,0.1809,0.186,0.1931,0.199,0.205,0.2137,0.2204,0.226,0.2324,0.235,0.2409,0.2404,0.2474,0.2464,0.2464,0.2472,0.227,0.2257,0.234,0.233,0.2413,0.2412,0.2411,0.2411,0,0.1629,0.1683,0.1731,0.1816,0.1843,0.1876,0.1977,0.2025,0.212,0.2212,0.2244,0.2364,0.2461,0.2499,0.2547,0.2548,0.2588,0.2606,0.2386,0.2369,0.2568,0.256,0.2685,0.2688,0.2691,0.2693,0.2695,0,0.1612,0.1631,0.1711,0.1734,0.1769,0.1832,0.1877,0.1991,0.2056,0.224,0.2286,0.2426,0.2525,0.2652,0.2649,0.2691,0.2687,0.254,0.2438,0.2607,0.2601,0.2589,0.2578,0.2209,0.2207,0.2205,0.2203,0,0.1569,0.1592,0.1626,0.1674,0.1719,0.1779,0.1863,0.1917,0.2071,0.2172,0.2337,0.2439,0.2579,0.2551,0.2632,0.2615,0.2519,0.251,0.273,0.2201,0.2173,0.2163,0.2164,0.2186,0.2188,0.2189,0.219,0.219,0.1521,0.1527,0.1569,0.1611,0.166,0.1723,0.1777,0.1853,0.1964,0.2085,0.2259,0.2323,0.2398,0.2411,0.2389,0.2365,0.2522,0.24,0.2398,0.24,0.2357,0.2339,0.2374,0.2376,0.2379,0.2381,0.2382,0,0.1453,0.1476,0.1509,0.1562,0.1588,0.1652,0.1766,0.1773,0.1855,0.1951,0.2056,0.1961,0.2005,0.2065,0.2008,0.2085,0.1973,0.2013,0.1815,0.1837,0.1856,0.1775,0.1643,0.164,0.1637,0.1635,0,0,0.1418,0.1418,0.1441,0.1469,0.1519,0.1572,0.1636,0.1618,0.1659,0.1634,0.1648,0.1814,0.1976,0.1727,0.1766,0.1684,0.1722,0.1628,0.2228,0.2012,0.2026,0.2104,0.2013,0,0,0,0,0]},{"header":{"parameterUnit":"m.s-1","parameterCategory":2,"la1":30.2991,"la2":30.254,"lo1":-89.0895,"lo2":-89.0444,"dy":0.0017,"dx":0.0017,"nx":28,"ny":28,"refTime":"2026-01-30T09:00:00:Z","depth":"2","parameterNumber":3,"parameterNumberName":"V-component_of_CURRENTS"},"data":[0,0,0,0,0,0,0,0,0,0,0,0,0,0,0,0,0,0,0,0,0,0,0,0,0,0,0,0,0,0,0,0,0,0,0,0,0,0,0,0,0,0,0,0,0,0,0,0,0,0,0,0,0,0,0,0,0,0,-0.0324,-0.0324,0,-0.0369,-0.037,-0.037,-0.0409,-0.041,-0.041,-0.0411,-0.0459,-0.046,-0.0461,0,0,0,0,0,0,0,0,0,0,0,0,0,-0.0318,-0.0318,-0.0324,-0.0324,-0.0325,-0.0369,-0.037,-0.037,-0.0409,-0.041,-0.041,-0.0411,-0.0459,-0.046,-0.0461,0,0,0,0,0,0,0,0,0,0,0,0,0,-0.0338,-0.0317,-0.0324,-0.0349,-0.0352,-0.0369,-0.037,-0.037,-0.0409,-0.041,-0.041,-0.0411,-0.0459,-0.046,-0.0461,-0.0458,0,0,-0.0466,-0.0466,0,0,0,0,0,0,0,0,-0.0337,-0.0338,-0.0345,-0.0348,-0.0351,-0.0384,-0.0386,-0.04,-0.0409,-0.0388,-0.0411,-0.0411,-0.0434,-0.0437,-0.0445,-0.046,-0.0462,-0.0466,-0.0467,-0.0467,-0.0468,0,0,0,0,0,0,0,-0.0335,-0.0337,-0.0342,-0.0346,-0.0349,-0.0375,-0.0378,-0.0389,-0.0407,-0.039,-0.0393,-0.0397,-0.0435,-0.0443,-0.0446,-0.0463,-0.0466,-0.0467,-0.0468,-0.0468,-0.0488,-0.0487,0,0,0,0,0,0,-0.0325,-0.0335,-0.0341,-0.0343,-0.0345,-0.0374,-0.0378,-0.0373,-0.0407,-0.0413,-0.0396,-0.0398,-0.0441,-0.0445,-0.0448,-0.0443,-0.0467,-0.0468,-0.0469,-0.0488,-0.0488,-0.0487,0,0,0,0,0,0,-0.0325,-0.0325,-0.0339,-0.0341,-0.0344,-0.0373,-0.0368,-0.0373,-0.0382,-0.0412,-0.0418,-0.0399,-0.0441,-0.0446,-0.0456,-0.0446,-0.0469,-0.047,-0.0488,-0.0488,-0.0487,-0.0435,0,0,0,0,0,0,-0.0324,-0.0324,-0.0317,-0.0339,-0.0344,-0.034,-0.0367,-0.0374,-0.0383,-0.0387,-0.0416,-0.0421,-0.0442,-0.0454,-0.0457,-0.0448,-0.0471,-0.0489,-0.0488,-0.0488,-0.0437,-0.0433,-0.0429,0,0,0,0,0,-0.0324,-0.0304,-0.0316,-0.0317,-0.0333,-0.0339,-0.0343,-0.0367,-0.0383,-0.0379,-0.0403,-0.042,-0.0453,-0.0454,-0.0459,-0.045,-0.0489,-0.0488,-0.0488,-0.0439,-0.0434,-0.0429,0,0,0,0,0,0,-0.0295,-0.0307,-0.0321,-0.0305,-0.032,-0.0346,-0.0343,-0.0362,-0.0378,-0.0382,-0.0414,-0.0421,-0.0427,-0.0445,-0.0446,-0.0454,-0.0474,-0.0474,-0.0436,-0.0431,-0.0427,-0.0412,-0.0473,0,0,0,0,0,-0.0285,-0.0275,-0.0296,-0.0284,-0.0289,-0.0317,-0.0323,-0.0339,-0.0357,-0.0366,-0.0388,-0.0411,-0.0427,-0.0434,-0.0451,-0.0451,-0.0477,-0.045,-0.0446,-0.0442,-0.0433,-0.0469,-0.0467,-0.0485,-0.0485,-0.0485,0,0,-0.027,-0.0276,-0.027,-0.0278,-0.0292,-0.0285,-0.0322,-0.0324,-0.0321,-0.0367,-0.0367,-0.0397,-0.0424,-0.0429,-0.0433,-0.0442,-0.045,-0.0441,-0.0438,-0.043,-0.0468,-0.0466,-0.0464,-0.0484,-0.0484,-0.0485,0,0,-0.023,-0.0241,-0.0219,-0.0227,-0.0242,-0.0259,-0.0257,-0.0281,-0.0294,-0.0301,-0.0335,-0.0356,-0.0378,-0.0398,-0.041,-0.0393,-0.0429,-0.04,-0.0364,-0.0399,-0.0398,-0.0397,-0.0426,-0.0429,-0.0397,-0.0396,-0.0396,0,-0.0213,-0.0189,-0.0214,-0.0198,-0.0197,-0.0242,-0.0219,-0.0238,-0.0263,-0.0269,-0.0292,-0.0335,-0.0362,-0.037,-0.0367,-0.0383,-0.0408,-0.0379,-0.0394,-0.0394,-0.0394,-0.0424,-0.0427,-0.0394,-0.0394,-0.0394,-0.0395,0,-0.0159,-0.0143,-0.013,-0.0124,-0.0127,-0.0115,-0.0143,-0.0151,-0.0178,-0.0202,-0.0223,-0.0269,-0.0294,-0.0309,-0.0333,-0.0344,-0.0364,-0.0386,-0.0404,-0.0389,-0.0422,-0.0426,-0.039,-0.0391,-0.0392,-0.0392,0,0,-0.011,-0.0093,-0.009,-0.0071,-0.0086,-0.0077,-0.0076,-0.0084,-0.0079,-0.0126,-0.0126,-0.0172,-0.0212,-0.0229,-0.027,-0.0302,-0.0329,-0.0339,-0.0342,-0.0364,-0.0404,-0.043,-0.0437,-0.0358,-0.0358,-0.0358,-0.0427,0,-0.006,-0.0004,-0.0016,0.003,0.0058,0.0019,0.003,0.0011,-0.0021,-0.0036,-0.0102,-0.012,-0.0178,-0.0191,-0.0234,-0.0305,-0.0338,-0.0308,-0.0419,-0.0422,-0.0444,-0.0442,-0.0395,-0.0453,-0.0431,-0.0432,-0.0432,0,-0.0003,0.0029,0.0089,0.0118,0.0126,0.0139,0.0145,0.0144,0.01,0.0075,0.0027,-0.0029,-0.0085,-0.0137,-0.0253,-0.0233,-0.031,-0.037,-0.0374,-0.0417,-0.0455,-0.0466,-0.0462,-0.044,-0.0439,-0.0439,-0.0438,0,0.0055,0.0102,0.0156,0.0165,0.0188,0.0202,0.0203,0.0177,0.0185,0.0137,0.0138,0.0046,0.0009,-0.0102,-0.0236,-0.0245,-0.0365,-0.0396,-0.049,-0.0492,-0.0483,-0.0484,-0.0472,-0.0472,-0.0472,-0.0472,-0.0472,0,0.0117,0.0158,0.0188,0.0217,0.0282,0.0264,0.031,0.0291,0.0272,0.0296,0.0197,0.0193,0.0015,-0.0079,-0.0208,-0.0361,-0.0349,-0.048,-0.0512,-0.0464,-0.0463,-0.0475,-0.0475,-0.0475,-0.0474,-0.0474,-0.0473,0,0.0171,0.0188,0.0254,0.0294,0.0311,0.0351,0.0384,0.0414,0.0383,0.0408,0.0399,0.0296,0.0171,-0.0005,-0.0188,-0.0316,-0.0463,-0.0517,-0.0449,-0.0471,-0.0574,-0.057,-0.0632,-0.0634,-0.0635,-0.0636,-0.0637,0,0.0204,0.0246,0.0316,0.0362,0.0381,0.0437,0.0481,0.0469,0.0504,0.0482,0.0507,0.0388,0.0326,0.0038,-0.0202,-0.0435,-0.0473,-0.0557,-0.0572,-0.0566,-0.059,-0.0584,-0.0579,-0.0539,-0.0539,-0.0539,-0.0539,0,0.0268,0.0289,0.0344,0.0445,0.0504,0.0582,0.0638,0.0686,0.0683,0.0696,0.0694,0.0636,0.0363,0.0125,-0.0208,-0.0364,-0.0521,-0.0566,-0.0575,-0.0507,-0.0484,-0.0506,-0.0502,-0.0539,-0.0539,-0.0539,-0.0539,-0.0539,0.0311,0.0366,0.0442,0.054,0.0617,0.0725,0.081,0.0861,0.0926,0.0961,0.0861,0.0784,0.0486,0.0075,-0.0215,-0.0517,-0.0514,-0.0617,-0.0614,-0.0612,-0.0591,-0.0571,-0.0638,-0.0639,-0.0639,-0.064,-0.064,0,0.0378,0.0441,0.0535,0.0667,0.0784,0.0799,0.0922,0.1023,0.1125,0.1085,0.1064,0.08,0.0493,0.0156,-0.0277,-0.0554,-0.0564,-0.0649,-0.0592,-0.059,-0.0588,-0.0564,-0.0606,-0.0606,-0.0607,-0.0608,0,0,0.0416,0.0523,0.0581,0.0794,0.0892,0.1093,0.1178,0.1288,0.131,0.1285,0.119,0.1031,0.06,0.0294,-0.0087,-0.034,-0.0401,-0.0393,-0.0389,-0.0274,-0.0269,-0.0538,-0.0495,0,0,0,0,0]}],[{"header":{"parameterUnit":"m.s-1","parameterCategory":2,"la1":30.2991,"la2":30.254,"lo1":-89.0895,"lo2":-89.0444,"dy":0.0017,"dx":0.0017,"nx":28,"ny":28,"refTime":"2026-01-30T09:00:00:Z","depth":"4","parameterNumber":2,"parameterNumberName":"U-component_of_CURRENTS"},"data":[0,0,0,0,0,0,0,0,0,0,0,0,0,0,0,0,0,0,0,0,0,0,0,0,0,0,0,0,0,0,0,0,0,0,0,0,0,0,0,0,0,0,0,0,0,0,0,0,0,0,0,0,0,0,0,0,0,0,0.1121,0.1122,0,0.1203,0.1204,0.1204,0.1256,0.1256,0.1257,0.1257,0.1327,0.1328,0.1329,0,0,0,0,0,0,0,0,0,0,0,0,0,0.0989,0.0991,0.1121,0.1123,0.1124,0.1203,0.1204,0.1205,0.1256,0.1256,0.1257,0.1257,0.1326,0.1328,0.133,0,0,0,0,0,0,0,0,0,0,0,0,0,0.1054,0.0991,0.1121,0.116,0.1165,0.1203,0.1204,0.1205,0.1256,0.1256,0.1257,0.1258,0.1326,0.1328,0.133,0.1329,0,0,0.1336,0.1337,0,0,0,0,0,0,0,0,0.105,0.1059,0.1153,0.1158,0.1163,0.1222,0.1183,0.1246,0.1255,0.1219,0.1257,0.1258,0.1291,0.1296,0.1307,0.1332,0.1335,0.1337,0.1338,0.1339,0.1339,0,0,0,0,0,0,0,0.1046,0.1055,0.1152,0.1154,0.116,0.1166,0.1176,0.1195,0.1248,0.1222,0.1227,0.1239,0.1293,0.1305,0.1309,0.1336,0.1336,0.1338,0.134,0.134,0.1445,0.1446,0,0,0,0,0,0,0.104,0.1051,0.1149,0.1154,0.1109,0.1168,0.118,0.12,0.1249,0.1257,0.1238,0.1241,0.1301,0.1307,0.1312,0.1389,0.1339,0.1341,0.1342,0.1443,0.1445,0.1447,0,0,0,0,0,0,0.1037,0.1048,0.1146,0.1105,0.1119,0.117,0.1193,0.1202,0.124,0.1261,0.1269,0.1271,0.1302,0.1309,0.1357,0.1389,0.1342,0.1344,0.1441,0.1444,0.1446,0.1495,0,0,0,0,0,0,0.1033,0.1047,0.107,0.1105,0.1121,0.1186,0.1193,0.1203,0.1246,0.1251,0.1292,0.1297,0.1303,0.1354,0.136,0.1392,0.1345,0.144,0.1442,0.1445,0.1492,0.1499,0.1505,0,0,0,0,0,0.1028,0.1054,0.107,0.1083,0.1147,0.1188,0.1196,0.1233,0.1247,0.1269,0.1301,0.1297,0.1376,0.1357,0.1363,0.1396,0.1438,0.1442,0.1445,0.1489,0.1498,0.1505,0,0,0,0,0,0,0.1008,0.1063,0.1082,0.1124,0.1161,0.1198,0.1226,0.1247,0.1289,0.1302,0.1317,0.1325,0.1378,0.1381,0.136,0.1435,0.1406,0.1411,0.1438,0.1446,0.1453,0.1451,0.1347,0,0,0,0,0,0.1014,0.1052,0.1096,0.1133,0.1154,0.1194,0.1219,0.1245,0.1281,0.1302,0.1331,0.1363,0.1392,0.1415,0.1438,0.1479,0.1481,0.1504,0.1511,0.1516,0.152,0.1548,0.1557,0.1458,0.1458,0.1458,0,0,0.1017,0.1052,0.1075,0.1132,0.1165,0.1203,0.1212,0.1259,0.1297,0.1302,0.1368,0.1388,0.1408,0.1457,0.1481,0.1467,0.1549,0.1521,0.1525,0.1526,0.1552,0.1562,0.157,0.146,0.146,0.1459,0,0,0.1033,0.1075,0.1109,0.1144,0.1201,0.1226,0.1245,0.1298,0.1331,0.1387,0.1402,0.1443,0.1491,0.1513,0.1528,0.1584,0.1581,0.1597,0.1633,0.1661,0.1669,0.1676,0.17,0.1709,0.1602,0.1602,0.1602,0,0.1034,0.1087,0.1124,0.1165,0.12,0.124,0.128,0.1318,0.1381,0.1412,0.1418,0.15,0.1516,0.1572,0.1595,0.16,0.1614,0.16,0.1669,0.1676,0.1682,0.1705,0.1714,0.1605,0.1605,0.1604,0.1604,0,0.1072,0.1121,0.1145,0.1212,0.125,0.1295,0.1346,0.1394,0.1435,0.147,0.1542,0.1568,0.1616,0.163,0.1632,0.1692,0.1688,0.1671,0.1646,0.1695,0.1716,0.1725,0.1609,0.1608,0.1607,0.1607,0,0,0.1056,0.1153,0.1165,0.1204,0.1282,0.1315,0.1383,0.1451,0.1499,0.1557,0.1618,0.1671,0.1688,0.1706,0.1717,0.1743,0.1803,0.1734,0.1734,0.1753,0.187,0.1781,0.1782,0.1802,0.1803,0.1805,0.187,0,0.1077,0.1153,0.12,0.1276,0.1319,0.1377,0.1434,0.15,0.1557,0.1623,0.1663,0.1722,0.1717,0.1747,0.1775,0.1797,0.1827,0.1787,0.1823,0.1824,0.1735,0.1789,0.181,0.1876,0.1878,0.1879,0.188,0,0.1097,0.1149,0.1223,0.1314,0.1339,0.1389,0.1487,0.1545,0.1637,0.1682,0.1745,0.1776,0.184,0.1817,0.1886,0.1864,0.1876,0.1883,0.1886,0.1788,0.1751,0.1815,0.1896,0.1894,0.1893,0.1892,0.1891,0,0.1063,0.1164,0.1224,0.1257,0.1362,0.1411,0.1472,0.1566,0.1621,0.1724,0.1771,0.1842,0.1888,0.1917,0.1947,0.1925,0.2009,0.1975,0.1906,0.19,0.1937,0.1928,0.2018,0.2017,0.2017,0.2017,0.2017,0,0.1059,0.111,0.1217,0.1249,0.1322,0.1404,0.1485,0.1557,0.1655,0.1719,0.1801,0.185,0.1917,0.197,0.1978,0.1976,0.2038,0.1922,0.1913,0.1958,0.1951,0.1944,0.1934,0.202,0.2019,0.2019,0.2018,0,0.1012,0.1084,0.1155,0.127,0.1309,0.1362,0.1484,0.1536,0.1644,0.1729,0.1766,0.1877,0.1945,0.2002,0.2056,0.2008,0.2016,0.1999,0.2063,0.2055,0.188,0.1873,0.1918,0.1915,0.1913,0.1911,0.191,0,0.0994,0.1028,0.115,0.1188,0.1244,0.1333,0.1389,0.1514,0.1568,0.1728,0.1757,0.1871,0.1931,0.1936,0.2002,0.2024,0.2,0.1992,0.1913,0.1885,0.1872,0.1868,0.1863,0.1906,0.1906,0.1905,0.1905,0,0.0953,0.1004,0.1058,0.1134,0.1201,0.1267,0.1361,0.1388,0.1531,0.1642,0.1704,0.1751,0.1829,0.187,0.1912,0.1919,0.1987,0.1969,0.1972,0.1897,0.1871,0.186,0.1858,0.1897,0.1898,0.1899,0.1899,0,0.0918,0.0939,0.1011,0.1071,0.1142,0.118,0.1241,0.1311,0.138,0.1554,0.1571,0.1697,0.1803,0.1818,0.1855,0.1863,0.1826,0.1756,0.1769,0.1779,0.1705,0.165,0.1608,0,0,0,0,0,0.0879,0.0896,0.0943,0.0995,0.1055,0.1098,0.1213,0.1276,0.1411,0.1415,0.1489,0.1555,0.1619,0.1685,0.1665,0.1803,0.1836,0.1773,0.1762,0.1855,0.1864,0.1792,0,0,0,0,0,0,0.0853,0.0894,0.0916,0.0917,0.0928,0.0986,0.1052,0.1146,0.1159,0.13,0.134,0.1455,0.1536,0.1599,0.1625,0.1649,0.1613,0.1857,0.1854,0.1851,0.1858,0.1865,0.1794,0,0,0,0,0]},{"header":{"parameterUnit":"m.s-1","parameterCategory":2,"la1":30.2991,"la2":30.254,"lo1":-89.0895,"lo2":-89.0444,"dy":0.0017,"dx":0.0017,"nx":28,"ny":28,"refTime":"2026-01-30T09:00:00:Z","depth":"4","parameterNumber":3,"parameterNumberName":"V-component_of_CURRENTS"},"data":[0,0,0,0,0,0,0,0,0,0,0,0,0,0,0,0,0,0,0,0,0,0,0,0,0,0,0,0,0,0,0,0,0,0,0,0,0,0,0,0,0,0,0,0,0,0,0,0,0,0,0,0,0,0,0,0,0,0,0.0178,0.0178,0,0.0117,0.0117,0.0116,0.0078,0.0078,0.0078,0.0078,0.0012,0.001,0.0009,0,0,0,0,0,0,0,0,0,0,0,0,0,0.024,0.0239,0.0178,0.0177,0.0177,0.0117,0.0117,0.0116,0.0078,0.0078,0.0078,0.0077,0.0012,0.001,0.0008,0,0,0,0,0,0,0,0,0,0,0,0,0,0.0199,0.0239,0.0178,0.0151,0.0148,0.0118,0.0117,0.0116,0.0078,0.0078,0.0078,0.0077,0.0013,0.001,0.0008,-0.0,0,0,0.0001,-0.0,0,0,0,0,0,0,0,0,0.0202,0.0197,0.0156,0.0153,0.0149,0.0105,0.0114,0.0077,0.0078,0.0105,0.0078,0.0077,0.0043,0.0038,0.0027,-0.0003,-0.0006,0.0001,-0.0001,-0.0002,-0.0002,0,0,0,0,0,0,0,0.0205,0.02,0.0154,0.0155,0.0151,0.0134,0.0128,0.0107,0.0076,0.0102,0.0099,0.0093,0.0041,0.0029,0.0025,-0.0007,0.0001,-0.0001,-0.0003,-0.0004,-0.0074,-0.0075,0,0,0,0,0,0,0.0213,0.0202,0.0156,0.0152,0.0175,0.0133,0.0126,0.0119,0.0076,0.0069,0.0093,0.0091,0.0034,0.0028,0.0023,-0.0002,-0.0002,-0.0004,-0.0005,-0.0074,-0.0074,-0.0075,0,0,0,0,0,0,0.0215,0.021,0.0159,0.0176,0.0168,0.0132,0.0125,0.0118,0.0104,0.0069,0.0062,0.0085,0.0033,0.0026,-0.0,-0.0004,-0.0005,-0.0007,-0.0073,-0.0074,-0.0075,-0.0043,0,0,0,0,0,0,0.0217,0.0211,0.021,0.0177,0.0167,0.0143,0.0125,0.0117,0.01,0.0097,0.006,0.0053,0.0032,0.0004,-0.0002,-0.0007,-0.0009,-0.0073,-0.0074,-0.0074,-0.0044,-0.0043,-0.0042,0,0,0,0,0,0.0219,0.0221,0.0211,0.0205,0.0168,0.0143,0.0137,0.011,0.01,0.0096,0.0068,0.0054,-0.0007,0.0001,-0.0005,-0.0011,-0.0072,-0.0073,-0.0074,-0.0044,-0.0043,-0.0042,0,0,0,0,0,0,0.0247,0.0216,0.0204,0.0196,0.0172,0.0137,0.0131,0.0112,0.0086,0.0083,0.0051,0.0042,0.0016,-0.0003,0.0007,-0.0036,-0.0043,-0.0045,-0.0017,-0.0017,-0.0016,-0.0003,-0.0011,0,0,0,0,0,0.0253,0.0246,0.0214,0.0207,0.0197,0.0164,0.0152,0.0133,0.0105,0.0093,0.0065,0.0035,0.0007,-0.0008,-0.0034,-0.0054,-0.0077,-0.0064,-0.0064,-0.0063,-0.0058,-0.0101,-0.0103,-0.0078,-0.0078,-0.0078,0,0,0.0263,0.0245,0.0241,0.0213,0.0193,0.0181,0.0156,0.0138,0.0127,0.009,0.0068,0.0037,0.0002,-0.0023,-0.0037,-0.0039,-0.0082,-0.0064,-0.0063,-0.0059,-0.0102,-0.0105,-0.0107,-0.0079,-0.0079,-0.0079,0,0,0.0278,0.0262,0.026,0.0243,0.0215,0.0195,0.0191,0.0154,0.0137,0.0112,0.0081,0.0048,0.0009,-0.002,-0.0039,-0.005,-0.0077,-0.006,-0.0045,-0.0086,-0.0088,-0.009,-0.0121,-0.0126,-0.0059,-0.0059,-0.0059,0,0.029,0.0283,0.0256,0.025,0.0241,0.0203,0.0201,0.0178,0.0137,0.0123,0.011,0.0041,0.001,-0.0024,-0.003,-0.0047,-0.0071,-0.0042,-0.0084,-0.0086,-0.0089,-0.012,-0.0126,-0.0057,-0.0057,-0.0058,-0.0058,0,0.03,0.0296,0.0295,0.0276,0.0263,0.0254,0.0222,0.0204,0.0179,0.0152,0.0111,0.0064,0.0024,0.0005,-0.0016,-0.0052,-0.0063,-0.0077,-0.0082,-0.0089,-0.0122,-0.0129,-0.0055,-0.0056,-0.0056,-0.0057,0,0,0.0319,0.0306,0.0305,0.0307,0.0277,0.0269,0.0253,0.0226,0.0216,0.0168,0.0148,0.0089,0.0059,0.0036,-0.0001,-0.0039,-0.0081,-0.0062,-0.0065,-0.0085,-0.0167,-0.0155,-0.0162,-0.0103,-0.0104,-0.0105,-0.0181,0,0.0334,0.034,0.0325,0.0331,0.0332,0.0301,0.0293,0.0264,0.0231,0.0202,0.0144,0.0111,0.0072,0.0053,0.0007,-0.0058,-0.0099,-0.0059,-0.0164,-0.0167,-0.0149,-0.0169,-0.0108,-0.0186,-0.0188,-0.0189,-0.019,0,0.0346,0.0351,0.0366,0.0365,0.0363,0.0362,0.0344,0.0329,0.028,0.0255,0.0206,0.0157,0.0094,0.0064,-0.0052,-0.0025,-0.0092,-0.0145,-0.0149,-0.0153,-0.0168,-0.018,-0.0202,-0.0201,-0.02,-0.02,-0.0199,0,0.0373,0.0377,0.0396,0.0394,0.0387,0.039,0.0383,0.0346,0.034,0.0287,0.0277,0.0188,0.0149,0.0052,-0.0058,-0.0059,-0.0184,-0.02,-0.0254,-0.0253,-0.0254,-0.0251,-0.0284,-0.0284,-0.0284,-0.0284,-0.0284,0,0.0389,0.0403,0.0414,0.0422,0.045,0.0428,0.0441,0.042,0.0391,0.039,0.0309,0.0287,0.0144,0.0055,-0.0049,-0.0168,-0.018,-0.0253,-0.0275,-0.0239,-0.0234,-0.0259,-0.0255,-0.0287,-0.0286,-0.0286,-0.0285,0,0.0409,0.0415,0.0441,0.0453,0.0465,0.0481,0.0492,0.0496,0.0466,0.0462,0.045,0.0352,0.0239,0.0098,-0.0064,-0.0146,-0.0265,-0.0305,-0.0248,-0.0265,-0.0311,-0.0304,-0.0375,-0.0375,-0.0375,-0.0376,-0.0376,0,0.0416,0.0433,0.0474,0.0499,0.0509,0.0534,0.0556,0.054,0.0548,0.0507,0.0511,0.0401,0.0324,0.0113,-0.0045,-0.0244,-0.0272,-0.0335,-0.0334,-0.0307,-0.0321,-0.0315,-0.0308,-0.0376,-0.0376,-0.0376,-0.0376,0,0.0429,0.045,0.0474,0.0534,0.0571,0.0612,0.064,0.0655,0.0638,0.0614,0.0564,0.044,0.0311,0.0128,-0.0029,-0.0172,-0.0296,-0.0338,-0.0339,-0.0339,-0.031,-0.0322,-0.0315,-0.0377,-0.0377,-0.0377,-0.0377,0,0.044,0.0465,0.0506,0.0554,0.0613,0.0668,0.0683,0.0692,0.0695,0.065,0.0633,0.0482,0.0384,0.0165,0.0023,-0.012,-0.016,-0.0206,-0.0214,-0.0216,-0.0149,-0.0088,-0.0107,0,0,0,0,0,0.0442,0.0468,0.052,0.0575,0.0639,0.0674,0.0728,0.0736,0.073,0.0709,0.067,0.0551,0.0325,0.022,0.0081,0.001,-0.0189,-0.0159,-0.0246,-0.0381,-0.0381,-0.033,0,0,0,0,0,0,0.0439,0.0487,0.0514,0.0585,0.0628,0.07,0.0741,0.0745,0.0729,0.0702,0.0587,0.0512,0.0295,0.0403,0.0075,0.0029,-0.0046,-0.0271,-0.0274,-0.0382,-0.0381,-0.038,-0.0328,0,0,0,0,0]}]]